カタログに戻る

MOBIUS-1

運用中科学SSO
NORAD 64554·PAYLOAD·🇺🇸 United States

打ち上げ Jun 23, 2025 から Vandenberg Space Force Base

Loading…

次のパス (今後24時間)

TLE

最新Source: Space-Track

元期: Sep 14, 2026, 13:39 UTC

1 64554U 25135AC  26257.56904467  .00017981  00000-0  55047-3 0  9993
2 64554  97.4716  15.4610 0001419  22.7176 337.4129 15.33879825 68696

AllMySatでMOBIUS-1をリアルタイム追跡

Download on the App Store